Location: Newark
(60.6561°N, 46.5772°E)
Time: 08:18:00
(UTC+00:00)

Tiros 1 - Pass Details

Date: 22 October 2019
Orbit: 630 x 664 km, 48.4° (Epoch: 18 November)

Event Time Altitude Azimuth Distance (km) Brightness Sun altitude
Exits shadow 02:41:15 - 243° (WSW) 2,339 9.5 -9.1°
Reaches altitude 10° 02:42:27 10° 231° (SW) 2,084 9.3 -9.0°
Maximum altitude 02:44:40 13° 204° (SSW) 1,873 9.4 -8.7°
Drops below altitude 10° 02:46:54 10° 176° (S) 2,081 9.9 -8.4°
Sets 02:50:25 0° 149° (SSE) 2,989 11.2 -8.0°
